Location: Starry Hill Observatory
(46.8582°N, 122.3590°W)
Time: 08:32:14
(UTC-07:00)

ISS - Visible Passes

Search period start: 21 April 2014 00:00
Search period end: 01 May 2014 00:00
Orbit: 414 x 419 km, 51.6° (Epoch: 21 April)

Date Brightness Start Highest point End Pass type
(mag) Time Alt. Az. Time Alt. Az. Time Alt. Az.
21 Apr -3.1 20:45:47 10° WNW 20:49:08 67° SSW 20:52:21 11° SE visible
21 Apr -0.6 22:24:04 10° WSW 22:25:15 12° SW 22:25:15 12° SW visible
22 Apr -1.1 21:34:30 10° W 21:36:56 19° SW 21:38:42 13° S visible
23 Apr -1.7 20:45:28 10° W 20:48:25 29° SW 20:51:22 10° SSE visible
25 Apr -0.6 20:45:43 10° WSW 20:47:16 13° SW 20:48:48 10° SSW visible
